N978PJ GMMH-GLRB

Flight info

Callsign N978PJ
Flight time 2h 45m
Altitude 43000
Route GMMH/03 DKH L660 MAURI A600 PE UB600 NUSIT LIMAX ANITI UB600 GIA UB614 LGI UV207 BILOB NAVP1B TEKTO RNV22 OPAXO GLRB/22
Aircraft C750/M-SDE3FGIJ1KRWXY/LB1

Departure

Time 2026-04-21 07:14
Airport Dakhla Airport (GMMH)

Arrival

Time 2026-04-21 09:59
Airport Roberts International Airport (GLRB)
Time Latitude Longitude Altitude Speed Heading
2026-04-21 06:49 23.71457 -15.92911 30 ft 0 kts 248°
2026-04-21 07:03 23.71456 -15.92902 30 ft 4 kts 212°
2026-04-21 07:03 23.71435 -15.92921 30 ft 4 kts 242°
2026-04-21 07:03 23.71435 -15.92941 30 ft 0 kts 287°
2026-04-21 07:08 23.71444 -15.92958 30 ft 6 kts 308°
2026-04-21 07:08 23.71474 -15.93007 31 ft 8 kts 290°
2026-04-21 07:08 23.71492 -15.93056 33 ft 7 kts 292°
2026-04-21 07:08 23.71513 -15.93112 35 ft 8 kts 291°
2026-04-21 07:09 23.71481 -15.93158 37 ft 11 kts 198°
2026-04-21 07:09 23.71391 -15.93200 37 ft 17 kts 204°
2026-04-21 07:09 23.71279 -15.93251 39 ft 16 kts 202°
2026-04-21 07:09 23.71180 -15.93296 41 ft 14 kts 202°
2026-04-21 07:10 23.71087 -15.93339 40 ft 16 kts 205°
2026-04-21 07:10 23.70962 -15.93397 40 ft 22 kts 203°
2026-04-21 07:10 23.70806 -15.93468 39 ft 26 kts 202°
2026-04-21 07:10 23.70642 -15.93542 38 ft 25 kts 202°
2026-04-21 07:11 23.70550 -15.93597 38 ft 9 kts 246°
2026-04-21 07:11 23.70559 -15.93656 38 ft 0 kts 294°
2026-04-21 07:13 23.70564 -15.93667 38 ft 6 kts 294°
2026-04-21 07:13 23.70600 -15.93737 38 ft 14 kts 326°
2026-04-21 07:13 23.70770 -15.93687 38 ft 54 kts 23°
2026-04-21 07:13 23.71447 -15.93374 41 ft 145 kts 23°
2026-04-21 07:14 23.72467 -15.92918 354 ft 170 kts 20°
2026-04-21 07:14 23.73672 -15.92491 828 ft 194 kts 13°
2026-04-21 07:14 23.75080 -15.92301 1318 ft 214 kts 357°
2026-04-21 07:14 23.76543 -15.92740 2063 ft 225 kts 335°
2026-04-21 07:15 23.77789 -15.93777 3040 ft 231 kts 311°
2026-04-21 07:15 23.78478 -15.95416 3831 ft 247 kts 282°
2026-04-21 07:15 23.78319 -15.97270 4931 ft 250 kts 251°
2026-04-21 07:15 23.77318 -15.98749 6164 ft 240 kts 219°
2026-04-21 07:16 23.75792 -15.99433 7205 ft 243 kts 191°
2026-04-21 07:16 23.74096 -15.99210 8133 ft 255 kts 164°
2026-04-21 07:16 23.72538 -15.98173 9014 ft 268 kts 144°
2026-04-21 07:16 23.71125 -15.96860 9993 ft 271 kts 143°
2026-04-21 07:17 23.69510 -15.95597 9970 ft 304 kts 159°
2026-04-21 07:17 23.67394 -15.95255 10357 ft 307 kts 186°
2026-04-21 07:17 23.65394 -15.95597 11837 ft 279 kts 196°
2026-04-21 07:17 23.63497 -15.96082 12643 ft 284 kts 198°
2026-04-21 07:18 23.61553 -15.96601 13258 ft 290 kts 198°
2026-04-21 07:18 23.59588 -15.97123 13972 ft 292 kts 198°
2026-04-21 07:18 23.57616 -15.97638 14720 ft 287 kts 198°
2026-04-21 07:18 23.55717 -15.98175 15560 ft 281 kts 203°
2026-04-21 07:19 23.53894 -15.98984 16128 ft 284 kts 208°
2026-04-21 07:19 23.52089 -15.99875 16829 ft 286 kts 208°
2026-04-21 07:19 23.50220 -16.00672 17490 ft 291 kts 205°
2026-04-21 07:19 23.48296 -16.01400 18190 ft 294 kts 204°
2026-04-21 07:20 23.46365 -16.02162 18812 ft 296 kts 206°
2026-04-21 07:20 23.44429 -16.02962 19422 ft 299 kts 206°
2026-04-21 07:20 23.42467 -16.03765 20058 ft 303 kts 206°
2026-04-21 07:20 23.40482 -16.04562 20703 ft 306 kts 206°
2026-04-21 07:21 23.38477 -16.05369 21341 ft 309 kts 206°
2026-04-21 07:21 23.36452 -16.06189 21981 ft 312 kts 206°
2026-04-21 07:21 23.34404 -16.07018 22627 ft 316 kts 206°
2026-04-21 07:21 23.32332 -16.07855 23270 ft 319 kts 206°
2026-04-21 07:22 23.30239 -16.08699 23844 ft 323 kts 206°
2026-04-21 07:22 23.28129 -16.09550 24418 ft 324 kts 207°
2026-04-21 07:22 23.26010 -16.10405 24994 ft 326 kts 207°
2026-04-21 07:22 23.23877 -16.11266 25549 ft 328 kts 208°
2026-04-21 07:23 23.21735 -16.12130 26115 ft 330 kts 208°
2026-04-21 07:23 23.19576 -16.13000 26676 ft 332 kts 209°
2026-04-21 07:23 23.17402 -16.13876 27240 ft 334 kts 209°
2026-04-21 07:23 23.15218 -16.14756 27803 ft 336 kts 210°
2026-04-21 07:24 23.13017 -16.15642 28382 ft 339 kts 210°
2026-04-21 07:24 23.10799 -16.16535 29061 ft 341 kts 211°
2026-04-21 07:24 23.08565 -16.17434 29776 ft 344 kts 211°
2026-04-21 07:24 23.06313 -16.18340 30371 ft 347 kts 212°
2026-04-21 07:25 23.04043 -16.19253 30954 ft 349 kts 212°
2026-04-21 07:25 23.01758 -16.20172 31519 ft 352 kts 213°
2026-04-21 07:25 22.99450 -16.21099 32079 ft 355 kts 214°
2026-04-21 07:25 22.97127 -16.22032 32637 ft 357 kts 214°
2026-04-21 07:26 22.94786 -16.22973 33183 ft 360 kts 215°
2026-04-21 07:26 22.92426 -16.23920 33728 ft 363 kts 216°
2026-04-21 07:26 22.90043 -16.24876 34215 ft 366 kts 216°
2026-04-21 07:26 22.87640 -16.25841 34632 ft 370 kts 216°
2026-04-21 07:27 22.85211 -16.26815 35058 ft 374 kts 217°
2026-04-21 07:27 22.82755 -16.27798 35478 ft 378 kts 217°
2026-04-21 07:27 22.80277 -16.28791 35888 ft 382 kts 217°
2026-04-21 07:27 22.77772 -16.29794 36303 ft 385 kts 217°
2026-04-21 07:28 22.75246 -16.30805 36689 ft 389 kts 217°
2026-04-21 07:28 22.72697 -16.31825 36976 ft 392 kts 217°
2026-04-21 07:28 22.70126 -16.32853 37301 ft 395 kts 218°
2026-04-21 07:28 22.67536 -16.33888 37634 ft 398 kts 218°
2026-04-21 07:29 22.64934 -16.34925 38090 ft 398 kts 218°
2026-04-21 07:29 22.62344 -16.35955 38575 ft 397 kts 218°
2026-04-21 07:29 22.59755 -16.36991 38953 ft 396 kts 218°
2026-04-21 07:29 22.57175 -16.38023 39362 ft 395 kts 218°
2026-04-21 07:30 22.54605 -16.39046 39789 ft 393 kts 217°
2026-04-21 07:30 22.52036 -16.40070 40213 ft 392 kts 217°
2026-04-21 07:30 22.49484 -16.41088 40637 ft 390 kts 217°
2026-04-21 07:30 22.46943 -16.42101 41050 ft 389 kts 216°
2026-04-21 07:31 22.44409 -16.43111 41447 ft 387 kts 216°
2026-04-21 07:31 22.41886 -16.44115 41843 ft 386 kts 216°
2026-04-21 07:31 22.39368 -16.45117 42229 ft 385 kts 216°
2026-04-21 07:31 22.36861 -16.46115 42616 ft 383 kts 215°
2026-04-21 07:32 22.34363 -16.47108 42967 ft 383 kts 215°
2026-04-21 07:32 22.31840 -16.48120 42940 ft 391 kts 215°
2026-04-21 07:32 22.26637 -16.50189 42959 ft 406 kts 214°
2026-04-21 07:33 22.21254 -16.52323 42956 ft 419 kts 214°
2026-04-21 07:33 22.15697 -16.54529 42953 ft 432 kts 213°
2026-04-21 07:34 22.09975 -16.56794 42959 ft 444 kts 213°
2026-04-21 07:34 22.04105 -16.59119 42959 ft 455 kts 213°
2026-04-21 07:35 21.98116 -16.61486 43014 ft 461 kts 213°
2026-04-21 07:35 21.95108 -16.62672 43160 ft 461 kts 213°
2026-04-21 07:35 21.92096 -16.63862 43298 ft 461 kts 212°
2026-04-21 07:36 21.89090 -16.65051 43429 ft 460 kts 212°
2026-04-21 07:36 21.86081 -16.66240 43565 ft 460 kts 212°
2026-04-21 07:36 21.83078 -16.67427 43699 ft 459 kts 212°
2026-04-21 07:36 21.80089 -16.68632 43837 ft 458 kts 213°
2026-04-21 07:37 21.77108 -16.69846 43964 ft 458 kts 213°
2026-04-21 07:37 21.74130 -16.71045 44100 ft 457 kts 212°
2026-04-21 07:37 21.71146 -16.72235 44237 ft 457 kts 212°
2026-04-21 07:37 21.68176 -16.73426 44365 ft 456 kts 212°
2026-04-21 07:38 21.65209 -16.74622 44504 ft 455 kts 212°
2026-04-21 07:38 21.62246 -16.75813 44630 ft 454 kts 212°
2026-04-21 07:38 21.59290 -16.76997 44742 ft 453 kts 212°
2026-04-21 07:38 21.56338 -16.78179 44852 ft 452 kts 212°
2026-04-21 07:39 21.53395 -16.79360 44963 ft 451 kts 212°
2026-04-21 07:39 21.50453 -16.80539 45078 ft 451 kts 212°
2026-04-21 07:39 21.47517 -16.81715 45193 ft 450 kts 212°
2026-04-21 07:39 21.44584 -16.82888 45301 ft 449 kts 212°
2026-04-21 07:40 21.41657 -16.84059 45408 ft 449 kts 212°
2026-04-21 07:40 21.38738 -16.85227 45521 ft 448 kts 212°
2026-04-21 07:40 21.35819 -16.86394 45623 ft 447 kts 212°
2026-04-21 07:40 21.32907 -16.87558 45733 ft 446 kts 212°
2026-04-21 07:41 21.30026 -16.88685 45842 ft 447 kts 212°
2026-04-21 07:41 21.27054 -16.89810 45949 ft 447 kts 212°
2026-04-21 07:41 21.24130 -16.90922 46058 ft 445 kts 212°
2026-04-21 07:41 21.21264 -16.92035 46173 ft 444 kts 212°
2026-04-21 07:42 21.18359 -16.93164 46277 ft 444 kts 212°
2026-04-21 07:42 21.15416 -16.94292 46389 ft 443 kts 212°
2026-04-21 07:42 21.12555 -16.95386 46495 ft 442 kts 212°
2026-04-21 07:42 21.09665 -16.96499 46602 ft 441 kts 212°
2026-04-21 07:43 21.06782 -16.97610 46713 ft 440 kts 212°
2026-04-21 07:43 21.03902 -16.98716 46823 ft 440 kts 212°
2026-04-21 07:43 21.01025 -16.99819 46925 ft 439 kts 212°
2026-04-21 07:43 20.98146 -17.00926 46929 ft 440 kts 212°
2026-04-21 07:44 20.92288 -17.03019 46928 ft 454 kts 206°
2026-04-21 07:44 20.89141 -17.03637 46927 ft 467 kts 199°
2026-04-21 07:44 20.85872 -17.03907 46939 ft 474 kts 195°
2026-04-21 07:45 20.79299 -17.04379 46950 ft 472 kts 197°
2026-04-21 07:45 20.72714 -17.04898 46936 ft 477 kts 195°
2026-04-21 07:46 20.66091 -17.05355 46942 ft 476 kts 196°
2026-04-21 07:46 20.59470 -17.05867 46946 ft 478 kts 196°
2026-04-21 07:47 20.52830 -17.06339 46944 ft 478 kts 196°
2026-04-21 07:47 20.46189 -17.06838 46940 ft 479 kts 195°
2026-04-21 07:48 20.39536 -17.07320 46941 ft 479 kts 195°
2026-04-21 07:48 20.34000 -17.07730 46947 ft 479 kts 195°
2026-04-21 07:49 20.27343 -17.08217 46944 ft 480 kts 195°
2026-04-21 07:49 20.20740 -17.08701 46944 ft 480 kts 195°
2026-04-21 07:50 20.14031 -17.09192 46936 ft 480 kts 195°
2026-04-21 07:50 20.07364 -17.09680 46942 ft 480 kts 195°
2026-04-21 07:51 20.00694 -17.10168 46946 ft 480 kts 195°
2026-04-21 07:51 19.94023 -17.10655 46954 ft 480 kts 195°
2026-04-21 07:52 19.87351 -17.11142 46956 ft 480 kts 194°
2026-04-21 07:52 19.80683 -17.11629 46963 ft 480 kts 194°
2026-04-21 07:53 19.74006 -17.12116 46937 ft 481 kts 194°
2026-04-21 07:53 19.67323 -17.12602 46949 ft 481 kts 194°
2026-04-21 07:54 19.60637 -17.13088 46945 ft 482 kts 194°
2026-04-21 07:54 19.53942 -17.13575 46946 ft 482 kts 194°
2026-04-21 07:55 19.47241 -17.14061 46947 ft 483 kts 194°
2026-04-21 07:55 19.40531 -17.14548 46955 ft 484 kts 194°
2026-04-21 07:56 19.33813 -17.15036 46944 ft 484 kts 194°
2026-04-21 07:56 19.27086 -17.15523 46943 ft 485 kts 194°
2026-04-21 07:57 19.20349 -17.16010 46945 ft 486 kts 194°
2026-04-21 07:57 19.13603 -17.16498 46945 ft 486 kts 194°
2026-04-21 07:58 19.06849 -17.16986 46943 ft 487 kts 193°
2026-04-21 07:58 19.00082 -17.17475 46940 ft 487 kts 193°
2026-04-21 07:59 18.93314 -17.17963 46943 ft 488 kts 193°
2026-04-21 07:59 18.86540 -17.18452 46940 ft 488 kts 193°
2026-04-21 08:00 18.79760 -17.18940 46940 ft 489 kts 193°
2026-04-21 08:00 18.72973 -17.19428 46945 ft 489 kts 193°
2026-04-21 08:01 18.66184 -17.19917 46943 ft 489 kts 193°
2026-04-21 08:02 18.55996 -17.20649 46940 ft 489 kts 193°
2026-04-21 08:02 18.49201 -17.21136 46943 ft 490 kts 193°
2026-04-21 08:03 18.42401 -17.21624 46944 ft 490 kts 193°
2026-04-21 08:03 18.35601 -17.22111 46945 ft 490 kts 193°
2026-04-21 08:04 18.28801 -17.22599 46945 ft 490 kts 193°
2026-04-21 08:04 18.21999 -17.23086 46942 ft 490 kts 193°
2026-04-21 08:05 18.15195 -17.23572 46948 ft 490 kts 193°
2026-04-21 08:05 18.08386 -17.24059 46945 ft 490 kts 193°
2026-04-21 08:06 18.01577 -17.24546 46940 ft 491 kts 193°
2026-04-21 08:06 17.94768 -17.25031 46941 ft 491 kts 193°
2026-04-21 08:07 17.87954 -17.25518 46940 ft 491 kts 193°
2026-04-21 08:07 17.81138 -17.26003 46939 ft 491 kts 193°
2026-04-21 08:08 17.74324 -17.26488 46937 ft 491 kts 193°
2026-04-21 08:08 17.67510 -17.26973 46938 ft 491 kts 193°
2026-04-21 08:09 17.60695 -17.27458 46942 ft 491 kts 193°
2026-04-21 08:09 17.53880 -17.27942 46945 ft 491 kts 192°
2026-04-21 08:10 17.47066 -17.28426 46937 ft 491 kts 192°
2026-04-21 08:10 17.40250 -17.28909 46937 ft 491 kts 192°
2026-04-21 08:11 17.33480 -17.29389 46941 ft 491 kts 192°
2026-04-21 08:11 17.26662 -17.29872 46944 ft 491 kts 192°
2026-04-21 08:12 17.19848 -17.30355 46941 ft 491 kts 192°
2026-04-21 08:12 17.12992 -17.30839 46940 ft 491 kts 192°
2026-04-21 08:13 17.06178 -17.31321 46939 ft 491 kts 192°
2026-04-21 08:13 16.99367 -17.31802 46941 ft 490 kts 192°
2026-04-21 08:14 16.92556 -17.32283 46934 ft 490 kts 192°
2026-04-21 08:14 16.85792 -17.32760 46939 ft 490 kts 192°
2026-04-21 08:15 16.78936 -17.33243 46932 ft 490 kts 192°
2026-04-21 08:15 16.72127 -17.33722 46932 ft 490 kts 192°
2026-04-21 08:16 16.65321 -17.34200 46937 ft 490 kts 192°
2026-04-21 08:16 16.58556 -17.34675 46942 ft 490 kts 192°
2026-04-21 08:17 16.51752 -17.35153 46933 ft 490 kts 192°
2026-04-21 08:17 16.44950 -17.35629 46937 ft 490 kts 192°
2026-04-21 08:18 16.38144 -17.36107 46944 ft 490 kts 192°
2026-04-21 08:18 16.31333 -17.36584 46936 ft 490 kts 191°
2026-04-21 08:19 16.24523 -17.37060 46941 ft 490 kts 191°
2026-04-21 08:19 16.17718 -17.37536 46940 ft 491 kts 191°
2026-04-21 08:20 16.10855 -17.38015 46934 ft 491 kts 191°
2026-04-21 08:20 16.04035 -17.38492 46932 ft 491 kts 191°
2026-04-21 08:21 15.97260 -17.38964 46940 ft 491 kts 191°
2026-04-21 08:21 15.90435 -17.39440 46938 ft 492 kts 191°
2026-04-21 08:22 15.83608 -17.39916 46935 ft 492 kts 191°
2026-04-21 08:22 15.76732 -17.40395 46940 ft 492 kts 191°
2026-04-21 08:23 15.69897 -17.40871 46936 ft 492 kts 191°
2026-04-21 08:23 15.63058 -17.41346 46941 ft 492 kts 191°
2026-04-21 08:24 15.56221 -17.41821 46941 ft 493 kts 191°
2026-04-21 08:24 15.49376 -17.42297 46938 ft 493 kts 191°
2026-04-21 08:25 15.42529 -17.42772 46930 ft 493 kts 191°
2026-04-21 08:25 15.35684 -17.43246 46938 ft 493 kts 190°
2026-04-21 08:26 15.28885 -17.43718 46939 ft 493 kts 190°
2026-04-21 08:26 15.21987 -17.44196 46940 ft 493 kts 190°
2026-04-21 08:27 15.15181 -17.44667 46932 ft 494 kts 190°
2026-04-21 08:27 15.08325 -17.45141 46929 ft 494 kts 190°
2026-04-21 08:28 15.01469 -17.45615 46929 ft 494 kts 190°
2026-04-21 08:28 14.94618 -17.46088 46926 ft 494 kts 190°
2026-04-21 08:29 14.88954 -17.46479 46928 ft 494 kts 190°
2026-04-21 08:29 14.82091 -17.46953 46913 ft 494 kts 190°
2026-04-21 08:30 14.75170 -17.46566 46903 ft 507 kts 174°
2026-04-21 08:30 14.68472 -17.44029 46892 ft 521 kts 156°
2026-04-21 08:30 14.65305 -17.42155 46622 ft 529 kts 154°
2026-04-21 08:31 14.62126 -17.40197 46303 ft 534 kts 154°
2026-04-21 08:31 14.58895 -17.38296 45980 ft 534 kts 155°
2026-04-21 08:31 14.55665 -17.36467 45645 ft 534 kts 155°
2026-04-21 08:31 14.52421 -17.34587 45309 ft 535 kts 154°
2026-04-21 08:32 14.49200 -17.32662 44981 ft 535 kts 154°
2026-04-21 08:32 14.42773 -17.28904 44940 ft 529 kts 155°
2026-04-21 08:33 14.36369 -17.25170 44938 ft 529 kts 154°
2026-04-21 08:33 14.29965 -17.21419 44922 ft 529 kts 155°
2026-04-21 08:34 14.23556 -17.17688 44929 ft 529 kts 154°
2026-04-21 08:34 14.17156 -17.13946 44931 ft 529 kts 154°
2026-04-21 08:35 14.10749 -17.10218 44932 ft 528 kts 154°
2026-04-21 08:35 14.04354 -17.06488 44936 ft 528 kts 154°
2026-04-21 08:36 13.97957 -17.02767 44938 ft 528 kts 154°
2026-04-21 08:36 13.91566 -16.99047 44936 ft 528 kts 154°
2026-04-21 08:37 13.85175 -16.95332 44928 ft 527 kts 154°
2026-04-21 08:37 13.78789 -16.91621 44918 ft 527 kts 154°
2026-04-21 08:38 13.72403 -16.87913 44921 ft 527 kts 154°
2026-04-21 08:38 13.66018 -16.84207 44912 ft 527 kts 154°
2026-04-21 08:39 13.59634 -16.80505 44911 ft 527 kts 154°
2026-04-21 08:39 13.53252 -16.76806 44906 ft 526 kts 154°
2026-04-21 08:40 13.46877 -16.73113 44907 ft 526 kts 154°
2026-04-21 08:40 13.40507 -16.69426 44916 ft 525 kts 154°
2026-04-21 08:41 13.34161 -16.65709 44886 ft 527 kts 151°
2026-04-21 08:41 13.28337 -16.61085 44916 ft 530 kts 143°
2026-04-21 08:42 13.22622 -16.56324 44918 ft 528 kts 145°
2026-04-21 08:42 13.16858 -16.51653 44915 ft 529 kts 144°
2026-04-21 08:43 13.11140 -16.46908 44912 ft 528 kts 144°
2026-04-21 08:43 13.05382 -16.42225 44907 ft 528 kts 144°
2026-04-21 08:44 12.99659 -16.37507 44906 ft 528 kts 144°
2026-04-21 08:44 12.93916 -16.32821 44900 ft 528 kts 144°
2026-04-21 08:45 12.88186 -16.28118 44903 ft 528 kts 144°
2026-04-21 08:45 12.82445 -16.23429 44903 ft 527 kts 144°
2026-04-21 08:46 12.76712 -16.18737 44906 ft 527 kts 144°
2026-04-21 08:46 12.70980 -16.14055 44901 ft 527 kts 144°
2026-04-21 08:47 12.65249 -16.09373 44900 ft 527 kts 144°
2026-04-21 08:47 12.59522 -16.04699 44898 ft 527 kts 144°
2026-04-21 08:48 12.53794 -16.00027 44895 ft 526 kts 144°
2026-04-21 08:48 12.48070 -15.95360 44893 ft 526 kts 144°
2026-04-21 08:49 12.42347 -15.90698 44890 ft 526 kts 144°
2026-04-21 08:49 12.36601 -15.86078 44899 ft 525 kts 145°
2026-04-21 08:50 12.30862 -15.81452 44902 ft 525 kts 144°
2026-04-21 08:50 12.25125 -15.76833 44896 ft 525 kts 144°
2026-04-21 08:51 12.19425 -15.72249 44897 ft 525 kts 144°
2026-04-21 08:51 12.13654 -15.67606 44899 ft 525 kts 144°
2026-04-21 08:52 12.07913 -15.62995 44889 ft 525 kts 144°
2026-04-21 08:52 12.02173 -15.58383 44883 ft 525 kts 144°
2026-04-21 08:53 11.96435 -15.53778 44897 ft 524 kts 144°
2026-04-21 08:53 11.90703 -15.49178 44892 ft 524 kts 144°
2026-04-21 08:54 11.84970 -15.44582 44884 ft 524 kts 144°
2026-04-21 08:54 11.79243 -15.39991 44888 ft 523 kts 144°
2026-04-21 08:55 11.73517 -15.35405 44891 ft 523 kts 144°
2026-04-21 08:55 11.67793 -15.30822 44886 ft 523 kts 144°
2026-04-21 08:56 11.62070 -15.26243 44892 ft 523 kts 144°
2026-04-21 08:56 11.56349 -15.21668 44880 ft 523 kts 144°
2026-04-21 08:57 11.50629 -15.17097 44891 ft 522 kts 144°
2026-04-21 08:57 11.44908 -15.12526 44884 ft 522 kts 144°
2026-04-21 08:58 11.39184 -15.07956 44888 ft 522 kts 144°
2026-04-21 08:58 11.33465 -15.03393 44889 ft 522 kts 144°
2026-04-21 08:59 11.27745 -14.98830 44892 ft 522 kts 144°
2026-04-21 08:59 11.22022 -14.94268 44889 ft 522 kts 144°
2026-04-21 09:00 11.16301 -14.89710 44893 ft 522 kts 144°
2026-04-21 09:00 11.10557 -14.85191 44905 ft 521 kts 144°
2026-04-21 09:01 11.04815 -14.80677 44907 ft 522 kts 144°
2026-04-21 09:01 10.99072 -14.76156 44902 ft 522 kts 144°
2026-04-21 09:02 10.93329 -14.71648 44907 ft 521 kts 144°
2026-04-21 09:02 10.87589 -14.67135 44908 ft 521 kts 144°
2026-04-21 09:03 10.78978 -14.60377 44910 ft 521 kts 144°
2026-04-21 09:03 10.73281 -14.55908 44911 ft 520 kts 144°
2026-04-21 09:04 10.67608 -14.51332 44901 ft 521 kts 142°
2026-04-21 09:04 10.62013 -14.46663 44918 ft 520 kts 142°
2026-04-21 09:05 10.56422 -14.41998 44915 ft 520 kts 142°
2026-04-21 09:05 10.50838 -14.37336 44913 ft 520 kts 142°
2026-04-21 09:06 10.45249 -14.32679 44915 ft 519 kts 142°
2026-04-21 09:06 10.39670 -14.28025 44916 ft 519 kts 142°
2026-04-21 09:07 10.34087 -14.23377 44918 ft 519 kts 142°
2026-04-21 09:07 10.28510 -14.18731 44913 ft 518 kts 142°
2026-04-21 09:08 10.22932 -14.14089 44916 ft 518 kts 142°
2026-04-21 09:08 10.17357 -14.09451 44918 ft 518 kts 142°
2026-04-21 09:09 10.11787 -14.04820 44915 ft 517 kts 142°
2026-04-21 09:09 10.06128 -14.00328 44910 ft 516 kts 144°
2026-04-21 09:10 10.01363 -13.96605 44909 ft 516 kts 144°
2026-04-21 09:10 9.95670 -13.92176 44921 ft 515 kts 144°
2026-04-21 09:11 9.89980 -13.87749 44915 ft 515 kts 144°
2026-04-21 09:11 9.84293 -13.83325 44886 ft 515 kts 144°
2026-04-21 09:12 9.78605 -13.78904 44883 ft 515 kts 144°
2026-04-21 09:12 9.72921 -13.74487 44877 ft 515 kts 144°
2026-04-21 09:13 9.67242 -13.70077 44875 ft 514 kts 144°
2026-04-21 09:13 9.61566 -13.65669 44873 ft 514 kts 144°
2026-04-21 09:14 9.55766 -13.61466 44872 ft 511 kts 152°
2026-04-21 09:14 9.49343 -13.58453 44891 ft 508 kts 159°
2026-04-21 09:15 9.42928 -13.55434 44883 ft 509 kts 155°
2026-04-21 09:15 9.36524 -13.52384 44876 ft 508 kts 158°
2026-04-21 09:16 9.30103 -13.49391 44870 ft 508 kts 156°
2026-04-21 09:16 9.23709 -13.46347 44870 ft 508 kts 157°
2026-04-21 09:17 9.17296 -13.43350 44885 ft 507 kts 156°
2026-04-21 09:17 9.10952 -13.40344 44887 ft 507 kts 157°
2026-04-21 09:18 9.04531 -13.37421 44881 ft 505 kts 159°
2026-04-21 09:18 8.98061 -13.34656 44890 ft 505 kts 159°
2026-04-21 09:19 8.91596 -13.31889 44892 ft 504 kts 159°
2026-04-21 09:19 8.85128 -13.29129 44885 ft 504 kts 159°
2026-04-21 09:20 8.78666 -13.26366 44884 ft 504 kts 159°
2026-04-21 09:20 8.72201 -13.23608 44886 ft 504 kts 158°
2026-04-21 09:21 8.65965 -13.20379 44885 ft 506 kts 146°
2026-04-21 09:21 8.60873 -13.15484 44886 ft 509 kts 129°
2026-04-21 09:22 8.57429 -13.09258 44890 ft 511 kts 111°
2026-04-21 09:22 8.55526 -13.02347 44906 ft 511 kts 104°
2026-04-21 09:23 8.53673 -12.95431 44885 ft 510 kts 110°
2026-04-21 09:23 8.51053 -12.88784 44899 ft 509 kts 112°
2026-04-21 09:24 8.48772 -12.82016 44893 ft 509 kts 108°
2026-04-21 09:24 8.46379 -12.75291 44904 ft 508 kts 111°
2026-04-21 09:25 8.44010 -12.68559 44901 ft 508 kts 109°
2026-04-21 09:25 8.41658 -12.61825 44900 ft 508 kts 111°
2026-04-21 09:26 8.39277 -12.55116 44915 ft 508 kts 110°
2026-04-21 09:26 8.36928 -12.48393 44901 ft 507 kts 110°
2026-04-21 09:27 8.33862 -12.42023 44903 ft 504 kts 125°
2026-04-21 09:27 8.29189 -12.36787 44923 ft 501 kts 138°
2026-04-21 09:28 8.23968 -12.32126 44912 ft 501 kts 137°
2026-04-21 09:28 8.19113 -12.27083 44912 ft 500 kts 134°
2026-04-21 09:29 8.14111 -12.22212 44927 ft 499 kts 137°
2026-04-21 09:29 8.09183 -12.17285 44931 ft 498 kts 135°
2026-04-21 09:30 8.04303 -12.12442 44910 ft 497 kts 136°
2026-04-21 09:30 7.99371 -12.07562 44902 ft 496 kts 135°
2026-04-21 09:31 7.94464 -12.02678 44912 ft 495 kts 136°
2026-04-21 09:31 7.89552 -11.97823 44924 ft 494 kts 136°
2026-04-21 09:32 7.84666 -11.92968 44923 ft 493 kts 136°
2026-04-21 09:32 7.79863 -11.88060 44912 ft 491 kts 133°
2026-04-21 09:33 7.75231 -11.83001 44921 ft 490 kts 133°
2026-04-21 09:33 7.70583 -11.77975 44925 ft 490 kts 133°
2026-04-21 09:34 7.65955 -11.72942 44917 ft 489 kts 133°
2026-04-21 09:34 7.61319 -11.67920 44905 ft 489 kts 133°
2026-04-21 09:35 7.56694 -11.62903 44918 ft 488 kts 133°
2026-04-21 09:35 7.52071 -11.57893 44909 ft 488 kts 133°
2026-04-21 09:36 7.47451 -11.52886 44914 ft 488 kts 133°
2026-04-21 09:36 7.42830 -11.47880 44907 ft 487 kts 134°
2026-04-21 09:37 7.38210 -11.42878 44899 ft 487 kts 134°
2026-04-21 09:37 7.33617 -11.37905 44905 ft 478 kts 134°
2026-04-21 09:38 7.31347 -11.35449 44487 ft 484 kts 134°
2026-04-21 09:38 7.29020 -11.32933 43498 ft 490 kts 134°
2026-04-21 09:38 7.26686 -11.30407 42716 ft 497 kts 134°
2026-04-21 09:38 7.24325 -11.27853 41932 ft 501 kts 133°
2026-04-21 09:39 7.21937 -11.25270 41117 ft 507 kts 133°
2026-04-21 09:39 7.19522 -11.22659 40297 ft 512 kts 133°
2026-04-21 09:39 7.17083 -11.20022 39460 ft 518 kts 133°
2026-04-21 09:39 7.14614 -11.17353 38609 ft 524 kts 133°
2026-04-21 09:40 7.12116 -11.14654 37691 ft 529 kts 133°
2026-04-21 09:40 7.09591 -11.11925 36795 ft 536 kts 133°
2026-04-21 09:40 7.07030 -11.09158 35894 ft 543 kts 133°
2026-04-21 09:40 7.04445 -11.06365 34977 ft 549 kts 133°
2026-04-21 09:41 7.01821 -11.03532 34051 ft 556 kts 132°
2026-04-21 09:41 6.99173 -11.00672 33081 ft 560 kts 132°
2026-04-21 09:41 6.96543 -10.97831 32159 ft 564 kts 132°
2026-04-21 09:41 6.93859 -10.94934 31225 ft 568 kts 132°
2026-04-21 09:42 6.91160 -10.92023 30288 ft 568 kts 132°
2026-04-21 09:42 6.88480 -10.89130 29345 ft 560 kts 132°
2026-04-21 09:42 6.85848 -10.86290 28500 ft 551 kts 132°
2026-04-21 09:42 6.83258 -10.83496 27651 ft 542 kts 133°
2026-04-21 09:43 6.80707 -10.80745 26822 ft 532 kts 133°
2026-04-21 09:43 6.78202 -10.78041 26003 ft 524 kts 133°
2026-04-21 09:43 6.76002 -10.75168 25148 ft 515 kts 121°
2026-04-21 09:43 6.74227 -10.72064 24400 ft 509 kts 119°
2026-04-21 09:44 6.72501 -10.68990 23613 ft 501 kts 120°
2026-04-21 09:44 6.70772 -10.65983 22791 ft 491 kts 120°
2026-04-21 09:44 6.69058 -10.63043 22030 ft 484 kts 120°
2026-04-21 09:44 6.67385 -10.60132 21280 ft 476 kts 120°
2026-04-21 09:45 6.65759 -10.57271 20537 ft 466 kts 119°
2026-04-21 09:45 6.64157 -10.54475 19802 ft 458 kts 120°
2026-04-21 09:45 6.62566 -10.51722 19070 ft 451 kts 120°
2026-04-21 09:45 6.61008 -10.49017 18355 ft 443 kts 119°
2026-04-21 09:46 6.59483 -10.46355 17612 ft 437 kts 119°
2026-04-21 09:46 6.57956 -10.43731 16918 ft 432 kts 121°
2026-04-21 09:46 6.56002 -10.41451 16190 ft 431 kts 137°
2026-04-21 09:46 6.53505 -10.39801 15504 ft 430 kts 152°
2026-04-21 09:47 6.50658 -10.38896 14814 ft 431 kts 167°
2026-04-21 09:47 6.47681 -10.38802 14122 ft 422 kts 183°
2026-04-21 09:47 6.44925 -10.39472 13435 ft 397 kts 198°
2026-04-21 09:47 6.42493 -10.40577 12826 ft 371 kts 203°
2026-04-21 09:48 6.40224 -10.41645 12238 ft 351 kts 202°
2026-04-21 09:48 6.38057 -10.42650 11678 ft 335 kts 202°
2026-04-21 09:48 6.35981 -10.43607 11141 ft 322 kts 202°
2026-04-21 09:48 6.33984 -10.44535 10638 ft 311 kts 202°
2026-04-21 09:49 6.32054 -10.45435 10131 ft 301 kts 202°
2026-04-21 09:49 6.30176 -10.46307 9644 ft 293 kts 202°
2026-04-21 09:49 6.28350 -10.47154 9161 ft 285 kts 202°
2026-04-21 09:49 6.26574 -10.47979 8721 ft 278 kts 202°
2026-04-21 09:50 6.24830 -10.48789 8287 ft 275 kts 202°
2026-04-21 09:50 6.24269 -10.49049 8145 ft 274 kts 202°
2026-04-21 09:50 6.19692 -10.51174 7013 ft 267 kts 202°
2026-04-21 09:51 6.18010 -10.51955 6594 ft 266 kts 202°
2026-04-21 09:51 6.16337 -10.52732 6172 ft 265 kts 202°
2026-04-21 09:51 6.14642 -10.53401 5700 ft 259 kts 191°
2026-04-21 09:51 6.12885 -10.53313 5298 ft 251 kts 163°
2026-04-21 09:52 6.11378 -10.52478 4924 ft 248 kts 137°
2026-04-21 09:52 6.10652 -10.51603 4683 ft 246 kts 122°
2026-04-21 09:52 6.09775 -10.50141 4350 ft 241 kts 119°
2026-04-21 09:52 6.08937 -10.48720 4063 ft 230 kts 119°
2026-04-21 09:53 6.08391 -10.47289 3950 ft 211 kts 96°
2026-04-21 09:53 6.08579 -10.45878 3980 ft 203 kts 69°
2026-04-21 09:53 6.09375 -10.44729 3985 ft 201 kts 42°
2026-04-21 09:53 6.10538 -10.43967 4024 ft 201 kts 31°
2026-04-21 09:54 6.11757 -10.43238 3788 ft 208 kts 31°
2026-04-21 09:54 6.12990 -10.42491 3498 ft 202 kts 31°
2026-04-21 09:54 6.14122 -10.41808 3411 ft 183 kts 31°
2026-04-21 09:54 6.15155 -10.41027 2770 ft 194 kts 49°
2026-04-21 09:55 6.15571 -10.39705 2131 ft 204 kts 89°
2026-04-21 09:55 6.14982 -10.38486 2002 ft 188 kts 138°
2026-04-21 09:55 6.13853 -10.38186 1878 ft 162 kts 193°
2026-04-21 09:55 6.13085 -10.38892 1670 ft 157 kts 252°
2026-04-21 09:56 6.12989 -10.39927 1696 ft 137 kts 281°
2026-04-21 09:56 6.13571 -10.40594 1522 ft 133 kts 339°
2026-04-21 09:56 6.14474 -10.40510 1455 ft 129 kts 15°
2026-04-21 09:56 6.15327 -10.40297 1553 ft 133 kts 11°
2026-04-21 09:57 6.16312 -10.40083 1422 ft 147 kts 11°
2026-04-21 09:57 6.17285 -10.39851 1128 ft 138 kts 17°
2026-04-21 09:57 6.18117 -10.39441 943 ft 133 kts 31°
2026-04-21 09:57 6.18884 -10.38949 805 ft 129 kts 30°
2026-04-21 09:58 6.19646 -10.38482 621 ft 129 kts 30°
2026-04-21 09:58 6.20414 -10.38032 432 ft 128 kts 28°
2026-04-21 09:58 6.21176 -10.37570 262 ft 128 kts 29°
2026-04-21 09:58 6.21930 -10.37110 102 ft 125 kts 30°
2026-04-21 09:59 6.22642 -10.36681 38 ft 109 kts 30°
2026-04-21 09:59 6.23207 -10.36339 29 ft 75 kts 31°
2026-04-21 09:59 6.23578 -10.36118 31 ft 51 kts 31°
2026-04-21 09:59 6.23853 -10.35950 33 ft 43 kts 31°
2026-04-21 10:00 6.24024 -10.35843 34 ft 16 kts 57°
2026-04-21 10:00 6.23986 -10.35744 34 ft 6 kts 120°
2026-04-21 10:00 6.23983 -10.35738 33 ft 1 kts 120°
2026-04-21 10:00 6.23978 -10.35730 33 ft 2 kts 120°
2026-04-21 10:01 6.23968 -10.35713 33 ft 4 kts 120°
2026-04-21 10:01 6.23949 -10.35681 33 ft 7 kts 121°
2026-04-21 10:01 6.23946 -10.35627 32 ft 11 kts 36°
2026-04-21 10:01 6.24026 -10.35582 32 ft 14 kts 30°
2026-04-21 10:02 6.24123 -10.35515 31 ft 4 kts 80°
2026-04-21 10:02 6.24104 -10.35484 31 ft 5 kts 105°
2026-04-21 10:02 6.24118 -10.35463 31 ft 4 kts 35°
2026-04-21 10:03 6.24147 -10.35467 30 ft 8 kts 304°
2026-04-21 10:03 6.24184 -10.35485 30 ft 7 kts 47°
2026-04-21 10:03 6.24184 -10.35442 30 ft 6 kts 128°
2026-04-21 10:03 6.24165 -10.35439 30 ft 0 kts 192°